Tracking 30922 objects as of 2-Jul-2025
HD Live streaming from Space Station
objects crossing your sky now

GLOBALSTAR M029

Track GLOBALSTAR M029 now!
10-day predictions
GLOBALSTAR M029 is classified as:


NORAD ID: 25963
Int'l Code: 1999-062C
Perigee: 1,686.3 km
Apogee: 1,690.6 km
Inclination: 52.0 °
Period: 120.0 minutes
Semi major axis: 8059 km
RCS: 2.8434 m2 (large)
Launch date: November 22, 1999
Source: Globalstar (GLOB)
Launch site: TYURATAM MISSILE AND SPACE COMPLEX (TTMTR)
Your satellite tracking list
DMSP 5D-2 F11 DEB
Track 1 satellite(s)




NASA's NSSDC Master Catalog

Two Line Element Set (TLE):
1 25963U 99062C   25182.91702745 -.00000092  00000-0 -76481-4 0  9997
2 25963  51.9817  55.3475 0002647 130.4499 242.7067 11.99897966170894
Source of the keplerian elements: AFSPC